Time,TemperatureF,DewpointF,PressureIn,WindDirection,WindDirectionDegrees,WindSpeedMPH,WindSpeedGustMPH,Humidity,HourlyPrecipIn,Conditions,Clouds,dailyrainin,SoftwareType,DateUTC
2013-05-02 00:01:00,63.3,54.1,29.99,ESE,112,0.0,0.0,72,0.00,,,0.00,WUHU21623XXSP,2013-05-02 04:01:00,
2013-05-02 00:06:00,63.1,54.0,30.00,ESE,112,0.0,0.0,72,0.00,,,0.00,WUHU21623XXSP,2013-05-02 04:06:00,
2013-05-02 00:11:00,63.0,53.8,29.99,ESE,112,0.0,0.0,72,0.00,,,0.00,WUHU21623XXSP,2013-05-02 04:11:00,
2013-05-02 00:16:00,62.8,54.0,29.99,ESE,112,0.0,0.0,73,0.00,,,0.00,WUHU21623XXSP,2013-05-02 04:16:00,
2013-05-02 00:21:00,62.8,54.0,29.99,ESE,112,0.0,0.0,73,0.00,,,0.00,WUHU21623XXSP,2013-05-02 04:21:00,
2013-05-02 00:26:00,62.4,53.6,29.99,ESE,112,0.0,0.0,73,0.00,,,0.00,WUHU21623XXSP,2013-05-02 04:26:00,
2013-05-02 00:31:00,62.4,53.6,29.99,ESE,112,0.0,0.0,73,0.00,,,0.00,WUHU21623XXSP,2013-05-02 04:31:00,
2013-05-02 00:36:00,62.4,53.6,29.99,ESE,112,0.0,0.0,73,0.00,,,0.00,WUHU21623XXSP,2013-05-02 04:36:00,
2013-05-02 00:41:00,62.2,53.8,29.99,ESE,112,0.0,0.0,74,0.00,,,0.00,WUHU21623XXSP,2013-05-02 04:41:00,
2013-05-02 00:46:00,62.1,53.7,29.99,ESE,112,0.0,0.0,74,0.00,,,0.00,WUHU21623XXSP,2013-05-02 04:46:00,
2013-05-02 00:51:00,61.9,53.5,29.99,ESE,112,0.0,0.0,74,0.00,,,0.00,WUHU21623XXSP,2013-05-02 04:51:00,
2013-05-02 00:56:00,61.7,53.3,29.99,ESE,112,0.0,0.0,74,0.00,,,0.00,WUHU21623XXSP,2013-05-02 04:56:00,
2013-05-02 01:01:00,61.7,53.7,29.99,ESE,112,0.0,0.0,75,0.00,,,0.00,WUHU21623XXSP,2013-05-02 05:01:00,
2013-05-02 01:06:00,61.5,53.5,29.99,ESE,112,0.0,0.0,75,0.00,,,0.00,WUHU21623XXSP,2013-05-02 05:06:00,
2013-05-02 01:11:00,61.3,53.4,29.99,ESE,112,0.0,0.0,75,0.00,,,0.00,WUHU21623XXSP,2013-05-02 05:11:00,
2013-05-02 01:16:00,61.3,53.7,29.99,ESE,112,0.0,0.0,76,0.00,,,0.00,WUHU21623XXSP,2013-05-02 05:16:00,
2013-05-02 01:21:00,61.2,53.6,29.99,ESE,112,0.0,0.0,76,0.00,,,0.00,WUHU21623XXSP,2013-05-02 05:21:00,
2013-05-02 01:26:00,61.0,53.4,29.99,ESE,112,0.0,0.0,76,0.00,,,0.00,WUHU21623XXSP,2013-05-02 05:26:00,
2013-05-02 01:31:00,61.0,53.4,29.99,ESE,112,0.0,0.0,76,0.00,,,0.00,WUHU21623XXSP,2013-05-02 05:31:00,
2013-05-02 01:36:00,61.0,53.4,29.99,ENE,67,0.0,0.0,76,0.00,,,0.00,WUHU21623XXSP,2013-05-02 05:36:00,
2013-05-02 01:41:00,60.8,53.2,29.99,ENE,67,0.0,0.0,76,0.00,,,0.00,WUHU21623XXSP,2013-05-02 05:41:00,
2013-05-02 01:46:00,60.6,53.4,29.99,NE,45,0.0,0.0,77,0.00,,,0.00,WUHU21623XXSP,2013-05-02 05:46:00,
2013-05-02 01:51:00,60.6,53.4,29.99,NE,45,0.0,0.0,77,0.00,,,0.00,WUHU21623XXSP,2013-05-02 05:51:00,
2013-05-02 01:56:00,60.6,53.4,29.99,NE,45,0.0,0.0,77,0.00,,,0.00,WUHU21623XXSP,2013-05-02 05:56:00,
2013-05-02 02:01:00,60.6,53.4,29.99,NE,45,0.0,0.0,77,0.00,,,0.00,WUHU21623XXSP,2013-05-02 06:01:00,
2013-05-02 02:06:00,60.6,53.4,29.98,NE,45,0.0,0.0,77,0.00,,,0.00,WUHU21623XXSP,2013-05-02 06:06:00,
2013-05-02 02:11:00,60.6,53.4,29.98,NE,45,0.0,0.0,77,0.00,,,0.00,WUHU21623XXSP,2013-05-02 06:11:00,
2013-05-02 02:16:00,60.6,53.4,29.98,NE,45,0.0,0.0,77,0.00,,,0.00,WUHU21623XXSP,2013-05-02 06:16:00,
2013-05-02 02:21:00,60.6,53.4,29.98,NE,45,0.0,0.0,77,0.00,,,0.00,WUHU21623XXSP,2013-05-02 06:21:00,
2013-05-02 02:26:00,60.6,53.8,29.98,NE,45,0.0,0.0,78,0.00,,,0.00,WUHU21623XXSP,2013-05-02 06:26:00,
2013-05-02 02:31:00,60.6,53.4,29.98,NE,45,0.0,0.0,77,0.00,,,0.00,WUHU21623XXSP,2013-05-02 06:31:00,
2013-05-02 02:36:00,60.6,53.4,29.97,NE,45,0.0,0.0,77,0.00,,,0.00,WUHU21623XXSP,2013-05-02 06:36:00,
2013-05-02 02:41:00,60.8,53.6,29.97,NE,45,0.0,0.0,77,0.00,,,0.00,WUHU21623XXSP,2013-05-02 06:41:00,
2013-05-02 02:46:00,61.0,53.8,29.97,NE,45,0.0,0.0,77,0.00,,,0.00,WUHU21623XXSP,2013-05-02 06:46:00,
2013-05-02 02:51:00,61.0,53.8,29.98,SSE,157,0.0,0.0,77,0.00,,,0.00,WUHU21623XXSP,2013-05-02 06:51:00,
2013-05-02 02:56:00,61.0,53.8,29.98,SSE,157,0.0,0.0,77,0.00,,,0.00,WUHU21623XXSP,2013-05-02 06:56:00,
2013-05-02 03:01:00,61.0,53.8,29.98,West,270,0.0,0.0,77,0.00,,,0.00,WUHU21623XXSP,2013-05-02 07:01:00,
2013-05-02 03:06:00,61.0,53.8,29.98,SSE,157,0.0,1.1,77,0.00,,,0.00,WUHU21623XXSP,2013-05-02 07:06:00,
2013-05-02 03:11:00,61.0,53.8,29.98,SE,135,0.0,1.1,77,0.00,,,0.00,WUHU21623XXSP,2013-05-02 07:11:00,
2013-05-02 03:16:00,61.0,53.8,29.98,ESE,112,0.0,0.0,77,0.00,,,0.00,WUHU21623XXSP,2013-05-02 07:16:00,
2013-05-02 03:21:00,61.0,53.8,29.98,ESE,112,0.0,0.0,76,0.00,,,0.00,WUHU21623XXSP,2013-05-02 07:21:00,
2013-05-02 03:26:00,61.2,53.9,29.98,South,180,0.0,0.0,77,0.00,,,0.00,WUHU21623XXSP,2013-05-02 07:26:00,
2013-05-02 03:31:00,61.0,53.8,29.98,South,180,0.0,0.0,77,0.00,,,0.00,WUHU21623XXSP,2013-05-02 07:31:00,
2013-05-02 03:36:00,61.0,53.4,29.98,South,180,0.0,0.0,76,0.00,,,0.00,WUHU21623XXSP,2013-05-02 07:36:00,
2013-05-02 03:41:00,60.6,53.1,29.98,South,180,0.0,0.0,76,0.00,,,0.00,WUHU21623XXSP,2013-05-02 07:41:00,
2013-05-02 03:46:00,60.6,53.4,29.98,South,180,0.0,0.0,77,0.00,,,0.00,WUHU21623XXSP,2013-05-02 07:46:00,
2013-05-02 03:51:00,60.4,53.2,29.98,South,180,0.0,0.0,77,0.00,,,0.00,WUHU21623XXSP,2013-05-02 07:51:00,
2013-05-02 03:56:00,60.4,53.2,29.97,NE,45,0.0,0.0,77,0.00,,,0.00,WUHU21623XXSP,2013-05-02 07:56:00,
2013-05-02 04:01:00,60.1,52.9,29.97,ENE,67,0.0,0.0,77,0.00,,,0.00,WUHU21623XXSP,2013-05-02 08:01:00,
2013-05-02 04:06:00,60.1,53.2,29.97,ENE,67,0.0,0.0,78,0.00,,,0.00,WUHU21623XXSP,2013-05-02 08:06:00,
2013-05-02 04:11:00,60.1,53.2,29.97,ENE,67,0.0,0.0,78,0.00,,,0.00,WUHU21623XXSP,2013-05-02 08:11:00,
2013-05-02 04:16:00,59.9,53.1,29.98,ENE,67,0.0,0.0,78,0.00,,,0.00,WUHU21623XXSP,2013-05-02 08:16:00,
2013-05-02 04:21:00,59.9,53.1,29.97,ENE,67,0.0,0.0,78,0.00,,,0.00,WUHU21623XXSP,2013-05-02 08:21:00,
2013-05-02 04:26:00,59.7,52.9,29.97,ENE,67,0.0,0.0,78,0.00,,,0.00,WUHU21623XXSP,2013-05-02 08:26:00,
2013-05-02 04:31:00,59.7,52.9,29.97,North,0,0.0,0.0,78,0.00,,,0.00,WUHU21623XXSP,2013-05-02 08:31:00,
2013-05-02 04:36:00,59.5,52.7,29.97,North,0,0.0,0.0,78,0.00,,,0.00,WUHU21623XXSP,2013-05-02 08:36:00,
2013-05-02 04:41:00,59.5,52.7,29.98,North,0,0.0,0.0,78,0.00,,,0.00,WUHU21623XXSP,2013-05-02 08:41:00,
2013-05-02 04:46:00,59.5,52.7,29.98,SE,135,1.6,1.6,78,0.00,,,0.00,WUHU21623XXSP,2013-05-02 08:46:00,
2013-05-02 04:51:00,59.5,52.7,29.97,ENE,67,0.0,1.6,78,0.00,,,0.00,WUHU21623XXSP,2013-05-02 08:51:00,
2013-05-02 04:56:00,59.5,53.1,29.98,ENE,67,0.0,0.0,79,0.00,,,0.00,WUHU21623XXSP,2013-05-02 08:56:00,
2013-05-02 05:01:00,59.5,52.7,29.97,ENE,67,0.0,0.0,78,0.00,,,0.00,WUHU21623XXSP,2013-05-02 09:01:00,
2013-05-02 05:06:00,59.5,52.7,29.97,ENE,67,0.0,0.0,78,0.00,,,0.00,WUHU21623XXSP,2013-05-02 09:06:00,
2013-05-02 05:11:00,59.5,52.7,29.97,ENE,67,0.0,0.0,78,0.00,,,0.00,WUHU21623XXSP,2013-05-02 09:11:00,
2013-05-02 05:16:00,59.4,52.9,29.97,ENE,67,0.0,0.0,79,0.00,,,0.00,WUHU21623XXSP,2013-05-02 09:16:00,
2013-05-02 05:21:00,59.4,53.2,29.97,ENE,67,0.0,0.0,80,0.00,,,0.00,WUHU21623XXSP,2013-05-02 09:21:00,
2013-05-02 05:26:00,59.2,53.1,29.98,ENE,67,0.0,0.0,80,0.00,,,0.00,WUHU21623XXSP,2013-05-02 09:26:00,
2013-05-02 05:31:00,59.0,52.9,29.98,ENE,67,0.0,0.0,80,0.00,,,0.00,WUHU21623XXSP,2013-05-02 09:31:00,
2013-05-02 05:36:00,58.8,52.7,29.98,ENE,67,0.0,0.0,80,0.00,,,0.00,WUHU21623XXSP,2013-05-02 09:36:00,
2013-05-02 05:41:00,58.8,52.7,29.98,ENE,67,0.0,0.0,80,0.00,,,0.00,WUHU21623XXSP,2013-05-02 09:41:00,
2013-05-02 05:46:00,58.8,52.7,29.98,ENE,67,0.0,0.0,80,0.00,,,0.00,WUHU21623XXSP,2013-05-02 09:46:00,
2013-05-02 05:51:00,58.8,52.7,29.98,ESE,112,0.0,0.0,80,0.00,,,0.00,WUHU21623XXSP,2013-05-02 09:51:00,
2013-05-02 05:56:00,58.8,53.0,29.98,SE,135,0.0,1.1,81,0.00,,,0.00,WUHU21623XXSP,2013-05-02 09:56:00,
2013-05-02 06:01:00,58.6,52.5,29.99,ENE,67,0.0,1.1,80,0.00,,,0.00,WUHU21623XXSP,2013-05-02 10:01:00,
2013-05-02 06:06:00,58.3,52.5,29.99,NW,315,0.8,1.6,81,0.00,,,0.00,WUHU21623XXSP,2013-05-02 10:06:00,
2013-05-02 06:11:00,58.1,52.3,29.99,NW,315,0.0,1.6,81,0.00,,,0.00,WUHU21623XXSP,2013-05-02 10:11:00,
2013-05-02 06:16:00,57.9,52.4,29.98,NW,315,0.0,0.9,82,0.00,,,0.00,WUHU21623XXSP,2013-05-02 10:16:00,
2013-05-02 06:21:00,57.9,52.4,29.98,NW,315,0.0,0.9,82,0.00,,,0.00,WUHU21623XXSP,2013-05-02 10:21:00,
2013-05-02 06:26:00,57.7,51.9,29.98,NW,315,0.0,0.0,81,0.00,,,0.00,WUHU21623XXSP,2013-05-02 10:26:00,
2013-05-02 06:31:00,57.6,51.8,29.98,NW,315,0.0,0.0,81,0.00,,,0.00,WUHU21623XXSP,2013-05-02 10:31:00,
2013-05-02 06:36:00,57.4,51.6,29.99,NW,315,0.0,0.0,81,0.00,,,0.00,WUHU21623XXSP,2013-05-02 10:36:00,
2013-05-02 06:41:00,57.4,51.6,29.99,NW,315,0.0,0.0,81,0.00,,,0.00,WUHU21623XXSP,2013-05-02 10:41:00,
2013-05-02 06:46:00,57.0,51.5,29.99,NW,315,0.0,0.0,82,0.00,,,0.00,WUHU21623XXSP,2013-05-02 10:46:00,
2013-05-02 06:51:00,57.0,51.5,29.99,NW,315,0.0,0.0,82,0.00,,,0.00,WUHU21623XXSP,2013-05-02 10:51:00,
2013-05-02 06:56:00,57.0,51.5,29.99,NW,315,0.0,0.0,82,0.00,,,0.00,WUHU21623XXSP,2013-05-02 10:56:00,
2013-05-02 07:01:00,57.0,51.5,29.99,NW,315,0.0,0.0,82,0.00,,,0.00,WUHU21623XXSP,2013-05-02 11:01:00,
2013-05-02 07:06:00,56.8,51.4,29.99,NW,315,0.0,0.0,82,0.00,,,0.00,WUHU21623XXSP,2013-05-02 11:06:00,
2013-05-02 07:11:00,56.8,51.7,29.99,NW,315,0.0,0.0,83,0.00,,,0.00,WUHU21623XXSP,2013-05-02 11:11:00,
2013-05-02 07:16:00,56.8,52.0,29.99,NW,315,0.0,0.0,84,0.00,,,0.00,WUHU21623XXSP,2013-05-02 11:16:00,
2013-05-02 07:21:00,56.8,52.0,29.99,NW,315,0.0,0.0,84,0.00,,,0.00,WUHU21623XXSP,2013-05-02 11:21:00,
2013-05-02 07:26:00,56.8,51.7,29.99,NW,315,0.0,0.0,83,0.00,,,0.00,WUHU21623XXSP,2013-05-02 11:26:00,
2013-05-02 07:31:00,57.0,52.2,29.99,NW,315,0.0,0.0,84,0.00,,,0.00,WUHU21623XXSP,2013-05-02 11:31:00,
2013-05-02 07:36:00,57.0,52.2,29.99,NW,315,0.0,0.0,84,0.00,,,0.00,WUHU21623XXSP,2013-05-02 11:36:00,
2013-05-02 07:41:00,57.0,52.2,30.00,NW,315,0.0,0.0,84,0.00,,,0.00,WUHU21623XXSP,2013-05-02 11:41:00,
2013-05-02 07:46:00,57.4,52.6,30.00,NW,315,0.0,0.0,84,0.00,,,0.00,WUHU21623XXSP,2013-05-02 11:46:00,
2013-05-02 07:51:00,57.4,52.2,30.00,NW,315,0.0,0.0,83,0.00,,,0.00,WUHU21623XXSP,2013-05-02 11:51:00,
2013-05-02 07:56:00,57.7,52.9,30.00,NW,315,0.0,0.0,84,0.00,,,0.00,WUHU21623XXSP,2013-05-02 11:56:00,
2013-05-02 08:01:00,58.3,53.5,30.00,NW,315,0.0,0.0,84,0.00,,,0.00,WUHU21623XXSP,2013-05-02 12:01:00,
2013-05-02 08:06:00,58.8,53.7,30.00,NW,315,0.0,0.0,83,0.00,,,0.00,WUHU21623XXSP,2013-05-02 12:06:00,
2013-05-02 08:11:00,59.2,54.0,30.01,NW,315,0.0,0.0,83,0.00,,,0.00,WUHU21623XXSP,2013-05-02 12:11:00,
2013-05-02 08:16:00,59.9,54.8,30.01,NW,315,0.0,0.0,83,0.00,,,0.00,WUHU21623XXSP,2013-05-02 12:16:00,
2013-05-02 08:21:00,60.4,55.0,30.01,NW,315,0.0,0.0,82,0.00,,,0.00,WUHU21623XXSP,2013-05-02 12:21:00,
2013-05-02 08:26:00,61.0,55.5,30.01,NW,315,0.0,0.0,82,0.00,,,0.00,WUHU21623XXSP,2013-05-02 12:26:00,
2013-05-02 08:31:00,61.2,55.3,30.01,NW,315,0.0,0.0,81,0.00,,,0.00,WUHU21623XXSP,2013-05-02 12:31:00,
2013-05-02 08:36:00,61.5,55.7,30.01,NW,315,0.0,0.0,81,0.00,,,0.00,WUHU21623XXSP,2013-05-02 12:36:00,
2013-05-02 08:41:00,62.1,55.8,30.01,South,180,0.0,0.0,80,0.00,,,0.00,WUHU21623XXSP,2013-05-02 12:41:00,
2013-05-02 08:46:00,62.6,56.3,30.00,SSW,202,5.1,6.5,80,0.00,,,0.00,WUHU21623XXSP,2013-05-02 12:46:00,
2013-05-02 08:51:00,63.1,56.1,30.00,SE,145,1.4,6.5,78,0.00,,,0.00,WUHU21623XXSP,2013-05-02 12:51:00,
2013-05-02 08:56:00,64.0,56.7,30.00,SSW,202,3.8,4.7,77,0.00,,,0.00,WUHU21623XXSP,2013-05-02 12:56:00,
2013-05-02 09:01:00,64.6,56.8,30.00,SSW,202,2.0,5.4,76,0.00,,,0.00,WUHU21623XXSP,2013-05-02 13:01:00,
2013-05-02 09:06:00,64.9,57.2,30.00,East,90,0.0,5.4,76,0.00,,,0.00,WUHU21623XXSP,2013-05-02 13:06:00,
2013-05-02 09:11:00,65.3,57.1,30.01,SSE,164,1.9,3.4,75,0.00,,,0.00,WUHU21623XXSP,2013-05-02 13:11:00,
2013-05-02 09:16:00,66.0,57.5,30.01,SSW,206,2.5,6.5,74,0.00,,,0.00,WUHU21623XXSP,2013-05-02 13:16:00,
2013-05-02 09:21:00,66.4,57.4,30.02,West,260,2.6,6.5,73,0.00,,,0.00,WUHU21623XXSP,2013-05-02 13:21:00,
2013-05-02 09:26:00,66.6,57.2,30.01,WNW,292,1.1,5.1,72,0.00,,,0.00,WUHU21623XXSP,2013-05-02 13:26:00,
2013-05-02 09:31:00,66.6,56.9,30.01,WSW,237,3.2,7.8,71,0.00,,,0.00,WUHU21623XXSP,2013-05-02 13:31:00,
2013-05-02 09:36:00,66.4,56.3,30.01,West,270,2.9,7.8,70,0.00,,,0.00,WUHU21623XXSP,2013-05-02 13:36:00,
2013-05-02 09:41:00,66.4,55.9,30.01,WSW,250,1.0,2.9,69,0.00,,,0.00,WUHU21623XXSP,2013-05-02 13:41:00,
2013-05-02 09:46:00,66.4,55.9,30.01,West,270,0.0,2.7,69,0.00,,,0.00,WUHU21623XXSP,2013-05-02 13:46:00,
2013-05-02 09:51:00,66.6,56.0,30.01,SW,236,1.1,2.9,69,0.00,,,0.00,WUHU21623XXSP,2013-05-02 13:51:00,
2013-05-02 09:56:00,66.7,56.2,30.01,SW,227,2.8,3.8,69,0.00,,,0.00,WUHU21623XXSP,2013-05-02 13:56:00,
2013-05-02 10:01:00,66.9,55.1,30.01,West,274,1.0,3.8,66,0.00,,,0.00,WUHU21623XXSP,2013-05-02 14:01:00,
2013-05-02 10:06:00,66.9,55.1,30.01,WSW,255,1.6,3.8,66,0.00,,,0.00,WUHU21623XXSP,2013-05-02 14:06:00,
2013-05-02 10:11:00,66.7,54.1,30.01,WNW,297,2.3,3.8,64,0.00,,,0.00,WUHU21623XXSP,2013-05-02 14:11:00,
2013-05-02 10:16:00,66.4,53.4,30.02,NW,315,2.5,3.8,63,0.00,,,0.00,WUHU21623XXSP,2013-05-02 14:16:00,
2013-05-02 10:21:00,65.5,52.9,30.02,SSW,202,2.2,3.8,64,0.00,,,0.00,WUHU21623XXSP,2013-05-02 14:21:00,
2013-05-02 10:26:00,65.5,53.4,30.01,WNW,287,1.2,2.7,65,0.00,,,0.00,WUHU21623XXSP,2013-05-02 14:26:00,
2013-05-02 10:31:00,65.5,52.9,30.01,West,270,2.2,2.2,64,0.00,,,0.00,WUHU21623XXSP,2013-05-02 14:31:00,
2013-05-02 10:36:00,65.3,52.8,30.01,West,266,1.6,2.5,64,0.00,,,0.00,WUHU21623XXSP,2013-05-02 14:36:00,
2013-05-02 10:41:00,65.5,53.8,30.01,WSW,243,1.6,2.9,66,0.00,,,0.00,WUHU21623XXSP,2013-05-02 14:41:00,
2013-05-02 10:46:00,65.8,52.9,30.01,West,270,3.1,3.8,63,0.00,,,0.00,WUHU21623XXSP,2013-05-02 14:46:00,
2013-05-02 10:51:00,65.8,52.9,30.01,West,270,1.1,3.8,63,0.00,,,0.00,WUHU21623XXSP,2013-05-02 14:51:00,
2013-05-02 10:56:00,66.0,53.0,30.01,WNW,292,2.2,3.1,63,0.00,,,0.00,WUHU21623XXSP,2013-05-02 14:56:00,
2013-05-02 11:01:00,66.0,52.6,30.01,West,270,0.9,3.1,62,0.00,,,0.00,WUHU21623XXSP,2013-05-02 15:01:00,
2013-05-02 11:06:00,66.0,52.6,30.01,West,270,2.8,3.8,62,0.00,,,0.00,WUHU21623XXSP,2013-05-02 15:06:00,
2013-05-02 11:11:00,66.0,52.6,30.02,WNW,282,1.4,3.8,62,0.00,,,0.00,WUHU21623XXSP,2013-05-02 15:11:00,
2013-05-02 11:16:00,66.4,53.0,30.01,SSW,202,4.5,4.5,62,0.00,,,0.00,WUHU21623XXSP,2013-05-02 15:16:00,
2013-05-02 11:21:00,66.9,53.5,30.01,SW,234,3.3,5.4,62,0.00,,,0.00,WUHU21623XXSP,2013-05-02 15:21:00,
2013-05-02 11:26:00,67.1,53.2,30.02,NW,315,0.0,5.4,61,0.00,,,0.00,WUHU21623XXSP,2013-05-02 15:26:00,
2013-05-02 11:31:00,67.3,53.4,30.02,NW,315,3.1,3.6,61,0.00,,,0.00,WUHU21623XXSP,2013-05-02 15:31:00,
2013-05-02 11:36:00,67.3,53.0,30.01,WNW,292,0.0,3.6,60,0.00,,,0.00,WUHU21623XXSP,2013-05-02 15:36:00,
2013-05-02 11:41:00,67.3,53.0,30.01,WSW,247,3.8,3.8,60,0.00,,,0.00,WUHU21623XXSP,2013-05-02 15:41:00,
2013-05-02 11:46:00,67.6,53.7,30.01,West,259,1.9,4.7,61,0.00,,,0.00,WUHU21623XXSP,2013-05-02 15:46:00,
2013-05-02 11:51:00,67.8,53.0,30.01,NNW,329,1.5,4.7,59,0.00,,,0.00,WUHU21623XXSP,2013-05-02 15:51:00,
2013-05-02 11:56:00,67.8,53.4,30.01,WNW,292,0.9,3.4,60,0.00,,,0.00,WUHU21623XXSP,2013-05-02 15:56:00,
2013-05-02 12:01:00,67.8,53.4,30.01,West,270,1.1,2.2,60,0.00,,,0.00,WUHU21623XXSP,2013-05-02 16:01:00,
2013-05-02 12:06:00,68.4,54.0,30.01,South,180,3.8,3.8,60,0.00,,,0.00,WUHU21623XXSP,2013-05-02 16:06:00,
2013-05-02 12:11:00,69.4,55.0,30.01,SW,233,2.7,5.8,60,0.00,,,0.00,WUHU21623XXSP,2013-05-02 16:11:00,
2013-05-02 12:16:00,70.3,54.9,30.01,WNW,292,1.8,5.8,58,0.00,,,0.00,WUHU21623XXSP,2013-05-02 16:16:00,
2013-05-02 12:21:00,70.3,54.4,30.01,SW,225,2.9,3.1,57,0.00,,,0.00,WUHU21623XXSP,2013-05-02 16:21:00,
2013-05-02 12:26:00,70.7,54.7,30.01,SSW,212,1.5,3.6,57,0.00,,,0.00,WUHU21623XXSP,2013-05-02 16:26:00,
2013-05-02 12:31:00,71.2,55.2,30.01,SW,234,1.7,3.6,57,0.00,,,0.00,WUHU21623XXSP,2013-05-02 16:31:00,
2013-05-02 12:36:00,71.2,53.7,30.01,WSW,246,3.2,4.7,54,0.00,,,0.00,WUHU21623XXSP,2013-05-02 16:36:00,
2013-05-02 12:41:00,70.7,52.7,30.01,WNW,284,2.2,4.9,53,0.00,,,0.00,WUHU21623XXSP,2013-05-02 16:41:00,
2013-05-02 12:46:00,69.8,52.4,30.01,West,266,2.4,6.3,54,0.00,,,0.00,WUHU21623XXSP,2013-05-02 16:46:00,
2013-05-02 12:51:00,69.3,51.9,30.01,WNW,296,1.4,6.3,54,0.00,,,0.00,WUHU21623XXSP,2013-05-02 16:51:00,
2013-05-02 12:56:00,68.7,51.4,30.01,WNW,286,1.9,5.1,54,0.00,,,0.00,WUHU21623XXSP,2013-05-02 16:56:00,
2013-05-02 13:01:00,68.2,50.8,30.01,WNW,292,2.9,5.1,54,0.00,,,0.00,WUHU21623XXSP,2013-05-02 17:01:00,
2013-05-02 13:06:00,67.6,50.8,30.01,WSW,247,2.7,3.4,55,0.00,,,0.00,WUHU21623XXSP,2013-05-02 17:06:00,
2013-05-02 13:11:00,67.3,50.0,30.00,WSW,247,3.1,4.5,54,0.00,,,0.00,WUHU21623XXSP,2013-05-02 17:11:00,
2013-05-02 13:16:00,67.1,50.8,30.00,West,270,2.7,4.5,56,0.00,,,0.00,WUHU21623XXSP,2013-05-02 17:16:00,
2013-05-02 13:21:00,67.3,51.0,30.00,WSW,247,3.6,4.5,56,0.00,,,0.00,WUHU21623XXSP,2013-05-02 17:21:00,
2013-05-02 13:26:00,67.6,50.8,30.00,WNW,292,1.8,4.5,55,0.00,,,0.00,WUHU21623XXSP,2013-05-02 17:26:00,
2013-05-02 13:31:00,67.6,50.4,30.00,WNW,295,2.0,4.0,54,0.00,,,0.00,WUHU21623XXSP,2013-05-02 17:31:00,
2013-05-02 13:36:00,67.5,50.7,29.99,WSW,247,2.7,4.0,55,0.00,,,0.00,WUHU21623XXSP,2013-05-02 17:36:00,
2013-05-02 13:41:00,67.6,50.8,29.99,West,270,1.8,5.1,55,0.00,,,0.00,WUHU21623XXSP,2013-05-02 17:41:00,
2013-05-02 13:46:00,67.6,50.4,29.99,NW,316,1.8,5.1,54,0.00,,,0.00,WUHU21623XXSP,2013-05-02 17:46:00,
2013-05-02 13:51:00,67.8,51.0,29.99,SW,225,2.0,3.8,55,0.00,,,0.00,WUHU21623XXSP,2013-05-02 17:51:00,
2013-05-02 13:56:00,68.2,51.8,29.98,NNW,337,2.0,3.8,56,0.00,,,0.00,WUHU21623XXSP,2013-05-02 17:56:00,
2013-05-02 14:01:00,68.9,51.5,29.98,North,0,2.2,3.4,54,0.00,,,0.00,WUHU21623XXSP,2013-05-02 18:01:00,
2013-05-02 14:06:00,69.1,52.2,29.98,West,278,1.4,3.4,55,0.00,,,0.00,WUHU21623XXSP,2013-05-02 18:06:00,
2013-05-02 14:11:00,69.4,52.0,29.98,NNW,347,1.0,2.5,54,0.00,,,0.00,WUHU21623XXSP,2013-05-02 18:11:00,
2013-05-02 14:16:00,69.4,51.0,29.98,NW,318,2.0,4.3,52,0.00,,,0.00,WUHU21623XXSP,2013-05-02 18:16:00,
2013-05-02 14:21:00,69.1,51.2,29.98,NW,313,1.8,4.3,53,0.00,,,0.00,WUHU21623XXSP,2013-05-02 18:21:00,
2013-05-02 14:26:00,68.9,50.5,29.98,NNW,331,2.4,4.9,52,0.00,,,0.00,WUHU21623XXSP,2013-05-02 18:26:00,
2013-05-02 14:31:00,68.5,50.7,29.99,WSW,247,5.8,6.3,53,0.00,,,0.00,WUHU21623XXSP,2013-05-02 18:31:00,
2013-05-02 14:36:00,68.2,49.9,29.99,West,275,3.2,8.1,52,0.00,,,0.00,WUHU21623XXSP,2013-05-02 18:36:00,
2013-05-02 14:41:00,67.1,49.4,29.99,WSW,249,2.7,8.1,53,0.00,,,0.00,WUHU21623XXSP,2013-05-02 18:41:00,
2013-05-02 14:47:00,66.0,48.4,29.99,WNW,292,3.4,6.3,53,0.00,,,0.00,WUHU21623XXSP,2013-05-02 18:47:00,
2013-05-02 14:52:00,64.6,47.4,29.99,NW,315,4.0,7.4,54,0.00,,,0.00,WUHU21623XXSP,2013-05-02 18:52:00,
2013-05-02 14:57:00,63.3,47.3,29.99,NW,325,2.1,6.7,56,0.00,,,0.00,WUHU21623XXSP,2013-05-02 18:57:00,
2013-05-02 15:02:00,63.1,46.6,30.00,NW,315,7.6,7.6,55,0.00,,,0.00,WUHU21623XXSP,2013-05-02 19:02:00,
2013-05-02 15:07:00,62.4,46.0,29.99,NW,315,2.4,7.6,55,0.00,,,0.00,WUHU21623XXSP,2013-05-02 19:07:00,
2013-05-02 15:12:00,61.7,45.8,30.00,WNW,301,2.2,5.1,56,0.00,,,0.00,WUHU21623XXSP,2013-05-02 19:12:00,
2013-05-02 15:16:00,60.6,44.8,30.00,NW,315,4.3,5.1,56,0.00,,,0.00,WUHU21623XXSP,2013-05-02 19:16:00,
2013-05-02 15:22:00,60.1,45.2,30.00,NW,307,2.8,5.1,58,0.00,,,0.00,WUHU21623XXSP,2013-05-02 19:22:00,
2013-05-02 15:27:00,59.7,44.9,30.00,NE,45,5.4,6.3,58,0.00,,,0.00,WUHU21623XXSP,2013-05-02 19:27:00,
2013-05-02 15:32:00,59.5,44.7,30.00,NW,326,2.8,6.9,58,0.00,,,0.00,WUHU21623XXSP,2013-05-02 19:32:00,
2013-05-02 15:36:00,58.8,44.0,29.99,NNW,327,3.2,6.9,58,0.00,,,0.00,WUHU21623XXSP,2013-05-02 19:36:00,
2013-05-02 15:41:00,57.9,43.7,29.99,NNW,328,1.9,6.9,59,0.00,,,0.00,WUHU21623XXSP,2013-05-02 19:41:00,
2013-05-02 15:46:00,57.7,44.8,29.99,West,270,2.9,5.8,62,0.00,,,0.00,WUHU21623XXSP,2013-05-02 19:46:00,
2013-05-02 15:51:00,57.6,44.6,29.99,WNW,301,3.7,6.5,62,0.00,,,0.00,WUHU21623XXSP,2013-05-02 19:51:00,
2013-05-02 15:56:00,57.4,44.1,29.99,WNW,292,2.2,6.5,61,0.00,,,0.00,WUHU21623XXSP,2013-05-02 19:56:00,
2013-05-02 16:01:00,57.0,44.1,29.99,NNW,341,2.1,6.0,62,0.00,,,0.00,WUHU21623XXSP,2013-05-02 20:01:00,
2013-05-02 16:06:00,57.0,44.5,29.99,NW,314,2.4,4.5,63,0.00,,,0.00,WUHU21623XXSP,2013-05-02 20:06:00,
2013-05-02 16:11:00,57.4,44.5,29.99,NNW,335,3.2,5.8,62,0.00,,,0.00,WUHU21623XXSP,2013-05-02 20:11:00,
2013-05-02 16:16:00,57.4,44.5,29.98,NNW,344,2.0,5.8,62,0.00,,,0.00,WUHU21623XXSP,2013-05-02 20:16:00,
2013-05-02 16:21:00,57.0,44.1,29.99,WNW,283,1.4,5.1,62,0.00,,,0.00,WUHU21623XXSP,2013-05-02 20:21:00,
2013-05-02 16:26:00,57.0,44.5,29.98,West,270,2.0,5.1,63,0.00,,,0.00,WUHU21623XXSP,2013-05-02 20:26:00,
2013-05-02 16:31:00,57.4,44.5,29.98,North,0,2.5,4.7,62,0.00,,,0.00,WUHU21623XXSP,2013-05-02 20:31:00,
2013-05-02 16:36:00,57.4,44.9,29.98,WNW,292,2.8,4.7,63,0.00,,,0.00,WUHU21623XXSP,2013-05-02 20:36:00,
2013-05-02 16:42:00,57.0,44.1,29.98,North,354,3.2,5.8,62,0.00,,,0.00,WUHU21623XXSP,2013-05-02 20:42:00,
2013-05-02 16:47:00,56.8,44.0,29.97,NNE,13,1.2,5.8,62,0.00,,,0.00,WUHU21623XXSP,2013-05-02 20:47:00,
2013-05-02 16:52:00,56.5,43.6,29.98,North,0,2.9,4.7,62,0.00,,,0.00,WUHU21623XXSP,2013-05-02 20:52:00,
2013-05-02 16:57:00,56.1,43.3,29.97,North,10,3.7,6.9,62,0.00,,,0.00,WUHU21623XXSP,2013-05-02 20:57:00,
2013-05-02 17:02:00,56.1,44.1,29.97,WNW,292,3.8,6.9,64,0.00,,,0.00,WUHU21623XXSP,2013-05-02 21:02:00,
2013-05-02 17:07:00,56.1,44.1,29.97,WNW,292,1.6,3.8,64,0.00,,,0.00,WUHU21623XXSP,2013-05-02 21:07:00,
2013-05-02 17:12:00,56.1,43.6,29.97,NW,315,3.6,4.3,63,0.00,,,0.00,WUHU21623XXSP,2013-05-02 21:12:00,
2013-05-02 17:17:00,55.9,43.9,29.97,WNW,292,2.5,4.3,64,0.00,,,0.00,WUHU21623XXSP,2013-05-02 21:17:00,
2013-05-02 17:22:00,55.9,43.9,29.97,NNW,336,2.5,4.0,64,0.00,,,0.00,WUHU21623XXSP,2013-05-02 21:22:00,
2013-05-02 17:27:00,55.9,43.9,29.97,North,349,1.7,5.1,64,0.00,,,0.00,WUHU21623XXSP,2013-05-02 21:27:00,
2013-05-02 17:32:00,56.5,44.8,29.97,West,270,2.2,5.1,65,0.00,,,0.00,WUHU21623XXSP,2013-05-02 21:32:00,
2013-05-02 17:37:00,56.8,44.3,29.97,NW,312,2.8,5.4,63,0.00,,,0.00,WUHU21623XXSP,2013-05-02 21:37:00,
2013-05-02 17:42:00,56.5,44.0,29.97,NNW,335,1.9,5.4,63,0.00,,,0.00,WUHU21623XXSP,2013-05-02 21:42:00,
2013-05-02 17:47:00,56.5,44.0,29.97,NNE,18,2.1,5.6,63,0.00,,,0.00,WUHU21623XXSP,2013-05-02 21:47:00,
2013-05-02 17:52:00,56.3,43.8,29.97,NNW,337,3.4,5.6,63,0.00,,,0.00,WUHU21623XXSP,2013-05-02 21:52:00,
2013-05-02 17:57:00,55.9,43.9,29.96,NW,315,4.0,5.6,64,0.00,,,0.00,WUHU21623XXSP,2013-05-02 21:57:00,
2013-05-02 18:02:00,55.8,43.7,29.96,NNE,14,3.0,6.0,64,0.00,,,0.00,WUHU21623XXSP,2013-05-02 22:02:00,
2013-05-02 18:07:00,55.4,43.4,29.96,NNW,333,3.6,6.0,64,0.00,,,0.00,WUHU21623XXSP,2013-05-02 22:07:00,
2013-05-02 18:12:00,55.2,43.2,29.96,NW,325,1.4,6.0,64,0.00,,,0.00,WUHU21623XXSP,2013-05-02 22:12:00,
2013-05-02 18:17:00,55.2,43.6,29.97,NNW,333,2.3,5.4,65,0.00,,,0.00,WUHU21623XXSP,2013-05-02 22:17:00,
2013-05-02 18:22:00,55.2,43.2,29.97,North,4,1.7,5.4,64,0.00,,,0.00,WUHU21623XXSP,2013-05-02 22:22:00,
2013-05-02 18:27:00,55.4,43.4,29.97,NE,45,3.1,4.7,64,0.00,,,0.00,WUHU21623XXSP,2013-05-02 22:27:00,
2013-05-02 18:32:00,55.2,43.2,29.96,NNW,342,2.0,4.7,64,0.00,,,0.00,WUHU21623XXSP,2013-05-02 22:32:00,
2013-05-02 18:37:00,55.2,43.2,29.95,NNW,337,3.4,4.3,64,0.00,,,0.00,WUHU21623XXSP,2013-05-02 22:37:00,
2013-05-02 18:42:00,55.0,43.4,29.95,NNE,24,1.1,4.5,65,0.00,,,0.00,WUHU21623XXSP,2013-05-02 22:42:00,
2013-05-02 18:47:00,54.9,42.9,29.96,NW,324,2.6,5.8,64,0.00,,,0.00,WUHU21623XXSP,2013-05-02 22:47:00,
2013-05-02 18:51:00,54.7,42.7,29.95,NNW,337,2.5,5.8,64,0.00,,,0.00,WUHU21623XXSP,2013-05-02 22:51:00,
2013-05-02 18:56:00,54.7,43.1,29.95,NNE,22,1.3,3.6,65,0.00,,,0.00,WUHU21623XXSP,2013-05-02 22:56:00,
2013-05-02 19:01:00,55.4,43.8,29.95,North,0,5.4,5.4,65,0.00,,,0.00,WUHU21623XXSP,2013-05-02 23:01:00,
2013-05-02 19:06:00,55.8,43.3,29.95,North,6,1.6,5.4,63,0.00,,,0.00,WUHU21623XXSP,2013-05-02 23:06:00,
2013-05-02 19:11:00,55.2,42.8,29.96,North,11,2.3,3.8,63,0.00,,,0.00,WUHU21623XXSP,2013-05-02 23:11:00,
2013-05-02 19:16:00,54.5,42.5,29.96,North,6,1.3,3.6,64,0.00,,,0.00,WUHU21623XXSP,2013-05-02 23:16:00,
2013-05-02 19:21:00,54.0,42.0,29.96,North,4,2.1,3.8,64,0.00,,,0.00,WUHU21623XXSP,2013-05-02 23:21:00,
2013-05-02 19:26:00,53.4,41.9,29.96,North,352,1.3,3.8,65,0.00,,,0.00,WUHU21623XXSP,2013-05-02 23:26:00,
2013-05-02 19:31:00,53.2,41.7,29.95,NNW,337,0.9,2.2,65,0.00,,,0.00,WUHU21623XXSP,2013-05-02 23:31:00,
2013-05-02 19:36:00,52.9,41.8,29.95,North,0,0.0,2.2,66,0.00,,,0.00,WUHU21623XXSP,2013-05-02 23:36:00,
2013-05-02 19:41:00,52.5,41.9,29.95,NNW,337,0.0,1.3,67,0.00,,,0.00,WUHU21623XXSP,2013-05-02 23:41:00,
2013-05-02 19:46:00,52.3,41.7,29.95,NNW,337,0.0,1.3,67,0.00,,,0.00,WUHU21623XXSP,2013-05-02 23:46:00,
2013-05-02 19:51:00,52.2,41.5,29.94,NNW,337,0.7,1.3,67,0.00,,,0.00,WUHU21623XXSP,2013-05-02 23:51:00,
2013-05-02 19:56:00,52.0,41.8,29.94,NNW,337,0.9,1.8,68,0.00,,,0.00,WUHU21623XXSP,2013-05-02 23:56:00,
2013-05-02 20:01:00,51.6,41.4,29.94,NNW,337,0.0,1.8,68,0.00,,,0.00,WUHU21623XXSP,2013-05-03 00:01:00,
2013-05-02 20:06:00,51.4,41.7,29.95,North,0,0.0,1.3,69,0.00,,,0.00,WUHU21623XXSP,2013-05-03 00:06:00,
2013-05-02 20:11:00,51.1,41.3,29.94,NNW,337,1.1,2.0,69,0.00,,,0.00,WUHU21623XXSP,2013-05-03 00:11:00,
2013-05-02 20:16:00,50.7,40.9,29.95,NNE,22,1.6,2.0,69,0.00,,,0.00,WUHU21623XXSP,2013-05-03 00:16:00,
2013-05-02 20:21:00,50.5,41.2,29.94,North,0,0.0,1.6,70,0.00,,,0.00,WUHU21623XXSP,2013-05-03 00:21:00,
2013-05-02 20:26:00,50.4,41.0,29.95,NNE,22,0.0,1.3,70,0.00,,,0.00,WUHU21623XXSP,2013-05-03 00:26:00,
2013-05-02 20:31:00,50.2,41.2,29.95,NNW,337,0.9,1.1,71,0.00,,,0.00,WUHU21623XXSP,2013-05-03 00:31:00,
2013-05-02 20:36:00,50.0,41.0,29.95,NW,315,0.0,1.1,71,0.00,,,0.00,WUHU21623XXSP,2013-05-03 00:36:00,
2013-05-02 20:41:00,49.8,40.8,29.95,NW,315,0.0,0.0,71,0.00,,,0.00,WUHU21623XXSP,2013-05-03 00:41:00,
2013-05-02 20:46:00,49.8,41.1,29.95,NW,315,0.0,0.0,72,0.00,,,0.00,WUHU21623XXSP,2013-05-03 00:46:00,
2013-05-02 20:51:00,49.6,41.0,29.95,NW,315,0.0,0.0,72,0.00,,,0.00,WUHU21623XXSP,2013-05-03 00:51:00,
2013-05-02 20:57:00,49.3,40.6,29.95,NW,315,0.0,0.9,72,0.00,,,0.00,WUHU21623XXSP,2013-05-03 00:57:00,
2013-05-02 21:02:00,49.1,40.8,29.95,West,270,0.0,1.1,73,0.00,,,0.00,WUHU21623XXSP,2013-05-03 01:02:00,
2013-05-02 21:07:00,48.9,40.6,29.96,North,0,1.8,1.8,73,0.00,,,0.00,WUHU21623XXSP,2013-05-03 01:07:00,
2013-05-02 21:12:00,48.4,40.0,29.96,WNW,299,2.0,3.1,73,0.00,,,0.00,WUHU21623XXSP,2013-05-03 01:12:00,
2013-05-02 21:17:00,48.0,39.7,29.97,WNW,298,2.0,3.1,73,0.00,,,0.00,WUHU21623XXSP,2013-05-03 01:17:00,
2013-05-02 21:22:00,47.5,39.6,29.96,NW,315,1.3,2.9,74,0.00,,,0.00,WUHU21623XXSP,2013-05-03 01:22:00,
2013-05-02 21:27:00,47.1,39.2,29.96,NW,315,1.6,2.7,74,0.00,,,0.00,WUHU21623XXSP,2013-05-03 01:27:00,
2013-05-02 21:32:00,46.8,38.9,29.96,NW,315,3.1,4.0,74,0.00,,,0.00,WUHU21623XXSP,2013-05-03 01:32:00,
2013-05-02 21:37:00,46.2,38.4,29.96,NW,315,0.0,4.0,74,0.00,,,0.00,WUHU21623XXSP,2013-05-03 01:37:00,
2013-05-02 21:42:00,45.9,38.0,29.97,WSW,247,3.3,3.6,74,0.00,,,0.00,WUHU21623XXSP,2013-05-03 01:42:00,
2013-05-02 21:46:00,45.5,38.0,29.97,NW,311,1.3,3.6,75,0.00,,,0.00,WUHU21623XXSP,2013-05-03 01:46:00,
2013-05-02 21:51:00,45.1,37.7,29.97,WNW,292,1.6,2.9,75,0.00,,,0.00,WUHU21623XXSP,2013-05-03 01:51:00,
2013-05-02 21:56:00,45.0,37.5,29.97,West,270,0.0,2.2,75,0.00,,,0.00,WUHU21623XXSP,2013-05-03 01:56:00,
2013-05-02 22:02:00,45.0,37.8,29.97,NNW,337,1.3,2.2,76,0.00,,,0.00,WUHU21623XXSP,2013-05-03 02:02:00,
2013-05-02 22:07:00,44.8,37.7,29.97,NW,315,0.0,2.0,76,0.00,,,0.00,WUHU21623XXSP,2013-05-03 02:07:00,
2013-05-02 22:12:00,44.6,37.5,29.98,West,270,0.0,2.9,76,0.00,,,0.00,WUHU21623XXSP,2013-05-03 02:12:00,
2013-05-02 22:17:00,44.4,37.6,29.99,WSW,247,1.6,2.9,77,0.00,,,0.00,WUHU21623XXSP,2013-05-03 02:17:00,
2013-05-02 22:22:00,44.2,37.5,29.98,WNW,289,1.5,2.5,77,0.00,,,0.00,WUHU21623XXSP,2013-05-03 02:22:00,
2013-05-02 22:27:00,44.2,37.5,29.98,NNW,330,1.2,2.5,77,0.00,,,0.00,WUHU21623XXSP,2013-05-03 02:27:00,
2013-05-02 22:32:00,44.1,37.3,29.97,NW,315,1.8,2.5,77,0.00,,,0.00,WUHU21623XXSP,2013-05-03 02:32:00,
2013-05-02 22:37:00,43.9,37.4,29.97,NW,305,2.3,4.7,78,0.00,,,0.00,WUHU21623XXSP,2013-05-03 02:37:00,
2013-05-02 22:42:00,43.5,37.1,29.97,NW,315,0.9,4.7,78,0.00,,,0.00,WUHU21623XXSP,2013-05-03 02:42:00,
2013-05-02 22:47:00,43.5,37.1,29.97,NNW,337,1.6,2.7,78,0.00,,,0.00,WUHU21623XXSP,2013-05-03 02:47:00,
2013-05-02 22:52:00,43.3,36.9,29.98,NNW,337,0.0,2.2,78,0.00,,,0.00,WUHU21623XXSP,2013-05-03 02:52:00,
2013-05-02 22:57:00,43.3,36.9,29.98,NW,321,1.7,3.1,78,0.00,,,0.00,WUHU21623XXSP,2013-05-03 02:57:00,
2013-05-02 23:02:00,43.2,36.7,29.97,NNW,337,0.0,3.1,78,0.00,,,0.00,WUHU21623XXSP,2013-05-03 03:02:00,
2013-05-02 23:07:00,43.2,36.7,29.97,North,0,0.9,1.3,78,0.00,,,0.00,WUHU21623XXSP,2013-05-03 03:07:00,
2013-05-02 23:12:00,43.0,36.9,29.98,WSW,247,0.0,0.9,79,0.00,,,0.00,WUHU21623XXSP,2013-05-03 03:12:00,
2013-05-02 23:17:00,43.0,36.9,29.97,NW,315,0.9,1.6,79,0.00,,,0.00,WUHU21623XXSP,2013-05-03 03:17:00,
2013-05-02 23:22:00,43.0,36.9,29.98,North,0,0.0,1.6,79,0.00,,,0.00,WUHU21623XXSP,2013-05-03 03:22:00,
2013-05-02 23:27:00,43.0,36.9,29.97,NNW,337,0.0,0.0,79,0.00,,,0.00,WUHU21623XXSP,2013-05-03 03:27:00,
2013-05-02 23:32:00,42.8,36.7,29.97,NNE,22,0.0,0.0,79,0.00,,,0.00,WUHU21623XXSP,2013-05-03 03:32:00,
2013-05-02 23:37:00,42.8,37.0,29.97,NNE,22,0.0,0.0,80,0.00,,,0.00,WUHU21623XXSP,2013-05-03 03:37:00,
2013-05-02 23:42:00,42.6,36.9,29.97,NNE,22,0.0,0.0,80,0.00,,,0.00,WUHU21623XXSP,2013-05-03 03:42:00,
2013-05-02 23:47:00,42.6,36.9,29.97,North,0,0.0,0.0,80,0.00,,,0.00,WUHU21623XXSP,2013-05-03 03:47:00,
2013-05-02 23:52:00,42.6,36.9,29.97,NNE,22,2.0,2.0,80,0.00,,,0.00,WUHU21623XXSP,2013-05-03 03:52:00,
2013-05-02 23:57:00,42.6,36.9,29.97,NW,315,0.0,2.0,80,0.00,,,0.00,WUHU21623XXSP,2013-05-03 03:57:00,